Retour au catalogue

STARLINK-5336

ActifCommunicationsVLEO
NORAD 57138·PAYLOAD·🇺🇸 United States

Lancé Jun 23, 2023 depuis Cape Canaveral Space Force Station

Loading…

Prochains Passages (prochaines 24 heures)

TLE

FraisSource: CelesTrak SupGP

Époque: Sep 14, 2026, 21:33 UTC

1 57138C 23090AP  26257.89840278  .00020307  00000+0  73557-3 0  2574
2 57138  43.0036 274.6226 0001570 291.5387  24.7659 15.27565298    13

Suivez STARLINK-5336 en temps réel avec AllMySat

Download on the App Store